Volver al catálogo

ONEWEB-0586

ActivoComunicacionesPO
NORAD 54653·PAYLOAD·🇬🇧 United Kingdom

Lanzado Dec 8, 2022 desde Cape Canaveral Space Force Station

Loading…

Próximos Pases (próximas 24 horas)

TLE

ActualizadoSource: CelesTrak SupGP

Época: Sep 14, 2026, 13:04 UTC

1 54653C 22166M   26257.54493472 -.00001352  00000+0 -32782-2 0  2573
2 54653  87.9276 226.2065 0002349  87.7967  21.6106 13.21826815    13

Sigue ONEWEB-0586 en tiempo real con AllMySat

Download on the App Store